This is the latest recevied weather packets stored in our database for station/object KE5WTH-14. If no packets are shown the sender has not sent any weather packets the latest 10 day(s).
| Time | Temp. | Humidity | Pressure | Rain* | Wind** | Luminosity | Snow |
|---|---|---|---|---|---|---|---|
| 1777148106 | 30.56° C | 68% | 1005.6 hPa | 0 mm | - | 902 W/m² | - |
| 1777148045 | 30.56° C | 68% | 1005.5 hPa | 0 mm | - | 925 W/m² | - |
| 1777147986 | 30° C | 67% | 1005.5 hPa | 0 mm | - | 985 W/m² | - |
| 1777147924 | 30° C | 67% | 1005.6 hPa | 0 mm | - | 1006 W/m² | - |
| 1777147861 | 30° C | 68% | 1005.5 hPa | 0 mm | - | 997 W/m² | - |
| 1777147800 | 30° C | 69% | 1005.5 hPa | 0 mm | - | 988 W/m² | - |
| 1777147739 | 29.44° C | 69% | 1005.6 hPa | 0 mm | - | 1036 W/m² | - |
| 1777147680 | 29.44° C | 69% | 1005.6 hPa | 0 mm | - | 918 W/m² | - |
| 1777147619 | 29.44° C | 68% | 1005.6 hPa | 0 mm | - | 695 W/m² | - |
| 1777147559 | 29.44° C | 68% | 1005.6 hPa | 0 mm | - | 695 W/m² | - |
| 1777147498 | 30° C | 67% | 1005.6 hPa | 0 mm | - | 301 W/m² | - |
| 1777147436 | 30° C | 67% | 1005.6 hPa | 0 mm | - | 273 W/m² | - |
| 1777147377 | 30° C | 68% | 1005.6 hPa | 0 mm | - | 366 W/m² | - |
| 1777147316 | 30° C | 66% | 1005.6 hPa | 0 mm | - | 366 W/m² | - |
| 1777147257 | 30.56° C | 66% | 1005.6 hPa | 0 mm | - | 934 W/m² | - |
| 1777147196 | 30.56° C | 66% | 1005.6 hPa | 0 mm | - | 624 W/m² | - |
| 1777147134 | 30.56° C | 65% | 1005.6 hPa | 0 mm | - | 577 W/m² | - |
| 1777147073 | 30.56° C | 67% | 1005.6 hPa | 0 mm | - | 1048 W/m² | - |
| 1777147002 | 30.56° C | 67% | 1005.7 hPa | 0 mm | - | 1029 W/m² | - |
| 1777146940 | 30.56° C | 67% | 1005.6 hPa | 0 mm | - | 455 W/m² | - |
| 1777146874 | 30.56° C | 68% | 1005.6 hPa | 0 mm | - | 927 W/m² | - |
| 1777146815 | 30.56° C | 70% | 1005.6 hPa | 0 mm | - | 927 W/m² | - |
| 1777146754 | 30° C | 70% | 1005.7 hPa | 0 mm | - | 965 W/m² | - |
| 1777146693 | 30° C | 67% | 1005.7 hPa | 0 mm | - | 1058 W/m² | - |
| 1777146637 | 30.56° C | 67% | 1005.7 hPa | 0 mm | - | 1090 W/m² | - |
* Rain latest hour (hover to see other rain measurements)
** Current wind speed in m/s (hover to see current wind gust speed)